Year,Month,Day,Hour,Minute,Value (Times are PST for temperature in C)
2013,04,21,10,15,9.70
2013,04,21,10,16,9.70
2013,04,21,10,17,9.60
2013,04,21,10,18,9.50
2013,04,21,10,19,9.40
2013,04,21,10,20,9.40
2013,04,21,10,21,9.40
2013,04,21,10,22,9.40
2013,04,21,10,23,9.40
2013,04,21,10,24,9.40
2013,04,21,10,25,9.30
2013,04,21,10,26,9.20
2013,04,21,10,27,9.20
2013,04,21,10,28,9.20
2013,04,21,10,29,9.20
2013,04,21,10,30,9.20
2013,04,21,10,31,9.20
2013,04,21,10,32,9.20
2013,04,21,10,33,9.30
2013,04,21,10,34,9.40
2013,04,21,10,35,9.50
2013,04,21,10,36,9.60
2013,04,21,10,37,9.70
2013,04,21,10,38,9.70
2013,04,21,10,39,9.80
2013,04,21,10,40,9.80
2013,04,21,10,41,9.80
2013,04,21,10,42,9.80
2013,04,21,10,43,9.80
2013,04,21,10,44,9.90
2013,04,21,10,45,9.90
2013,04,21,10,46,9.90
2013,04,21,10,47,9.90
2013,04,21,10,48,9.90
2013,04,21,10,49,10.00
2013,04,21,10,50,10.10
2013,04,21,10,51,10.10
2013,04,21,10,52,10.10
2013,04,21,10,53,10.10
2013,04,21,10,54,10.10
2013,04,21,10,55,10.10
2013,04,21,10,56,10.10
2013,04,21,10,57,10.10
2013,04,21,10,58,10.10
2013,04,21,10,59,10.10
2013,04,21,11,00,9.90
2013,04,21,11,01,9.90
2013,04,21,11,02,9.90
2013,04,21,11,03,9.90
2013,04,21,11,04,9.90
2013,04,21,11,05,9.90
2013,04,21,11,06,9.90
2013,04,21,11,07,9.90
2013,04,21,11,08,9.90
2013,04,21,11,09,9.90
2013,04,21,11,10,9.90
2013,04,21,11,11,9.90
2013,04,21,11,12,9.90
2013,04,21,11,13,9.90
2013,04,21,11,14,9.90
2013,04,21,11,15,9.90
2013,04,21,11,16,9.90
2013,04,21,11,17,9.90
2013,04,21,11,18,9.90
2013,04,21,11,19,10.00
2013,04,21,11,20,10.10
2013,04,21,11,21,10.10
2013,04,21,11,22,10.20
2013,04,21,11,23,10.40
2013,04,21,11,24,10.50
2013,04,21,11,25,10.70
2013,04,21,11,26,10.80
2013,04,21,11,27,10.90
2013,04,21,11,28,10.90
2013,04,21,11,29,11.00
2013,04,21,11,30,11.20
2013,04,21,11,31,11.30
2013,04,21,11,32,11.40
2013,04,21,11,33,11.40
2013,04,21,11,34,11.40
2013,04,21,11,35,11.40
2013,04,21,11,36,11.30
2013,04,21,11,37,11.20
2013,04,21,11,38,11.10
2013,04,21,11,39,11.00
2013,04,21,11,40,10.90
2013,04,21,11,41,10.90
2013,04,21,11,42,10.80
2013,04,21,11,43,10.80
2013,04,21,11,44,10.80
2013,04,21,11,45,10.80
2013,04,21,11,46,10.70
2013,04,21,11,47,10.70
2013,04,21,11,48,10.70
2013,04,21,11,49,10.70
2013,04,21,11,50,10.70
2013,04,21,11,51,10.70
2013,04,21,11,52,10.60
2013,04,21,11,53,10.60
2013,04,21,11,54,10.50
2013,04,21,11,55,10.40
2013,04,21,11,56,10.30
2013,04,21,11,57,10.20
2013,04,21,11,58,10.10
2013,04,21,11,59,10.00
2013,04,21,12,00,9.90
2013,04,21,12,01,9.70
2013,04,21,12,02,9.70
2013,04,21,12,03,9.50
2013,04,21,12,04,9.40
2013,04,21,12,05,9.20
2013,04,21,12,06,9.10
2013,04,21,12,07,9.00
2013,04,21,12,08,9.00
2013,04,21,12,09,8.90
2013,04,21,12,10,8.90
2013,04,21,12,11,8.80
2013,04,21,12,12,8.80
2013,04,21,12,13,8.70
2013,04,21,12,14,8.70
2013,04,21,12,15,8.60
2013,04,21,12,16,8.50
2013,04,21,12,17,8.50
2013,04,21,12,18,8.40
2013,04,21,12,19,8.40
2013,04,21,12,20,8.30
2013,04,21,12,21,8.20
2013,04,21,12,22,8.20
2013,04,21,12,23,8.20
2013,04,21,12,24,8.10
2013,04,21,12,25,8.10
2013,04,21,12,26,8.00
2013,04,21,12,27,8.00
2013,04,21,12,28,7.90
2013,04,21,12,29,7.90
2013,04,21,12,30,7.90
2013,04,21,12,31,7.80
2013,04,21,12,32,7.80
2013,04,21,12,33,7.80
2013,04,21,12,34,7.80
2013,04,21,12,35,7.80
2013,04,21,12,36,7.80
2013,04,21,12,37,7.80
2013,04,21,12,38,7.80
2013,04,21,12,39,7.80
2013,04,21,12,40,7.80
2013,04,21,12,41,7.70
2013,04,21,12,42,7.60
2013,04,21,12,43,7.50
2013,04,21,12,44,7.50
2013,04,21,12,45,7.40
2013,04,21,12,46,7.30
2013,04,21,12,47,7.30
2013,04,21,12,48,7.30
2013,04,21,12,49,7.30
2013,04,21,12,50,7.30
2013,04,21,12,51,7.30
2013,04,21,12,52,7.30
2013,04,21,12,53,7.30
2013,04,21,12,54,7.40
2013,04,21,12,55,7.40
2013,04,21,12,56,7.30
2013,04,21,12,57,7.30
2013,04,21,12,58,7.30
2013,04,21,12,59,7.30
2013,04,21,13,00,7.30
2013,04,21,13,01,7.40
2013,04,21,13,02,7.40
2013,04,21,13,03,7.40
2013,04,21,13,04,7.40
2013,04,21,13,05,7.50
2013,04,21,13,06,7.50
2013,04,21,13,07,7.50
2013,04,21,13,08,7.50
2013,04,21,13,09,7.50
2013,04,21,13,10,7.50
2013,04,21,13,11,7.60
2013,04,21,13,12,7.60
2013,04,21,13,13,7.70
2013,04,21,13,14,7.80
2013,04,21,13,15,7.80
2013,04,21,13,16,7.90
2013,04,21,13,17,8.00
2013,04,21,13,18,8.00
2013,04,21,13,19,8.10
2013,04,21,13,20,8.20
2013,04,21,13,21,8.30
2013,04,21,13,22,8.40
2013,04,21,13,23,8.40
2013,04,21,13,24,8.40
2013,04,21,13,25,8.50
2013,04,21,13,26,8.50
2013,04,21,13,27,8.60
2013,04,21,13,28,8.60
2013,04,21,13,29,8.50
2013,04,21,13,30,8.50
2013,04,21,13,31,8.40
2013,04,21,13,32,8.30
2013,04,21,13,33,8.30
2013,04,21,13,34,8.40
2013,04,21,13,35,8.40
2013,04,21,13,36,8.30
2013,04,21,13,37,8.30
2013,04,21,13,38,8.40
2013,04,21,13,39,8.40
2013,04,21,13,40,8.40
2013,04,21,13,41,8.40
2013,04,21,13,42,8.50
2013,04,21,13,43,8.60
2013,04,21,13,44,8.60
2013,04,21,13,45,8.70
2013,04,21,13,46,8.70
2013,04,21,13,47,8.70
2013,04,21,13,48,8.70
2013,04,21,13,49,8.70
2013,04,21,13,50,8.70
2013,04,21,13,51,8.80
2013,04,21,13,52,8.70
2013,04,21,13,53,8.70
2013,04,21,13,54,8.70
2013,04,21,13,55,8.70
2013,04,21,13,56,8.60
2013,04,21,13,57,8.60
2013,04,21,13,58,8.60
2013,04,21,13,59,8.50
2013,04,21,14,00,8.50
2013,04,21,14,01,8.50
2013,04,21,14,02,8.50
2013,04,21,14,03,8.50
2013,04,21,14,04,8.50
2013,04,21,14,05,8.40
2013,04,21,14,06,8.40
2013,04,21,14,07,8.30
2013,04,21,14,08,8.30
2013,04,21,14,09,8.30
2013,04,21,14,10,8.20
2013,04,21,14,11,8.20
2013,04,21,14,12,8.20
2013,04,21,14,13,8.20
2013,04,21,14,14,8.20
2013,04,21,14,15,8.20
2013,04,21,14,16,8.20
2013,04,21,14,17,8.30
2013,04,21,14,18,8.30
2013,04,21,14,19,8.20
2013,04,21,14,20,8.20
2013,04,21,14,21,8.20
2013,04,21,14,22,8.20
2013,04,21,14,23,8.20
2013,04,21,14,24,8.20
2013,04,21,14,25,8.10
2013,04,21,14,26,8.10
2013,04,21,14,27,8.00
2013,04,21,14,28,8.00
2013,04,21,14,29,8.00
2013,04,21,14,30,7.90
2013,04,21,14,31,7.80
2013,04,21,14,32,7.80
2013,04,21,14,33,7.80
2013,04,21,14,34,7.80
2013,04,21,14,35,7.70
2013,04,21,14,36,7.60
2013,04,21,14,37,7.60
2013,04,21,14,38,7.50
2013,04,21,14,39,7.50
2013,04,21,14,40,7.40
2013,04,21,14,41,7.30
2013,04,21,14,42,7.30
2013,04,21,14,43,7.10
2013,04,21,14,44,7.00
2013,04,21,14,45,6.90
2013,04,21,14,46,6.80
2013,04,21,14,47,6.80
2013,04,21,14,48,6.70
2013,04,21,14,49,6.60
2013,04,21,14,50,6.60
2013,04,21,14,51,6.50
2013,04,21,14,52,6.40
2013,04,21,14,53,6.40
2013,04,21,14,54,6.30
2013,04,21,14,55,6.30
2013,04,21,14,56,6.20
2013,04,21,14,57,6.20
2013,04,21,14,58,6.10
2013,04,21,14,59,6.00
2013,04,21,15,00,6.00
2013,04,21,15,01,6.00
2013,04,21,15,02,6.00
2013,04,21,15,03,6.00
2013,04,21,15,04,5.90
2013,04,21,15,05,5.90
2013,04,21,15,06,5.90
2013,04,21,15,07,5.90
2013,04,21,15,08,5.90
2013,04,21,15,09,5.90
2013,04,21,15,10,5.90
2013,04,21,15,11,5.80
2013,04,21,15,12,5.80
2013,04,21,15,13,5.90
2013,04,21,15,14,5.90
2013,04,21,15,15,5.80
2013,04,21,15,16,5.80
2013,04,21,15,17,5.90
2013,04,21,15,18,5.90
2013,04,21,15,19,5.90
2013,04,21,15,20,5.90
2013,04,21,15,21,5.80
2013,04,21,15,22,5.80
2013,04,21,15,23,5.80
2013,04,21,15,24,5.80
2013,04,21,15,25,5.70
2013,04,21,15,26,5.70
2013,04,21,15,27,5.70
2013,04,21,15,28,5.70
2013,04,21,15,29,5.70
2013,04,21,15,30,5.70
2013,04,21,15,31,5.70
2013,04,21,15,32,5.70
2013,04,21,15,33,5.70
2013,04,21,15,34,5.70
2013,04,21,15,35,5.70
2013,04,21,15,36,5.70
2013,04,21,15,37,5.70
2013,04,21,15,38,5.70
2013,04,21,15,39,5.70
2013,04,21,15,40,5.70
2013,04,21,15,41,5.70
2013,04,21,15,42,5.70
2013,04,21,15,43,5.70
2013,04,21,15,44,5.70
2013,04,21,15,45,5.70
2013,04,21,15,46,5.70
2013,04,21,15,47,5.70
2013,04,21,15,48,5.70
2013,04,21,15,49,5.70
2013,04,21,15,50,5.80
2013,04,21,15,51,5.80
2013,04,21,15,52,5.80
2013,04,21,15,53,5.80
2013,04,21,15,54,5.80
2013,04,21,15,55,5.90
2013,04,21,15,56,5.90
2013,04,21,15,57,5.90
2013,04,21,15,58,5.90
2013,04,21,15,59,5.90
2013,04,21,16,00,5.90
2013,04,21,16,01,6.00
2013,04,21,16,02,6.00
2013,04,21,16,03,6.00
2013,04,21,16,04,6.00
2013,04,21,16,05,6.00
2013,04,21,16,06,6.00
2013,04,21,16,07,6.00
2013,04,21,16,08,6.00
2013,04,21,16,09,6.00
2013,04,21,16,10,6.00
2013,04,21,16,11,6.00
2013,04,21,16,12,6.00
2013,04,21,16,13,6.00
2013,04,21,16,14,6.00
2013,04,21,16,15,6.00
2013,04,21,16,16,6.00
2013,04,21,16,17,6.00
2013,04,21,16,18,6.00
2013,04,21,16,19,6.00
2013,04,21,16,20,6.00
2013,04,21,16,21,6.00
2013,04,21,16,22,6.00
2013,04,21,16,23,6.00
2013,04,21,16,24,6.00
2013,04,21,16,25,6.00
2013,04,21,16,26,6.00
2013,04,21,16,27,6.00
2013,04,21,16,28,6.00
2013,04,21,16,29,6.00
2013,04,21,16,30,6.00
2013,04,21,16,31,6.00
2013,04,21,16,32,6.00
2013,04,21,16,33,6.00
2013,04,21,16,34,6.00
2013,04,21,16,35,6.10
2013,04,21,16,36,6.10
2013,04,21,16,37,6.10
2013,04,21,16,38,6.10
2013,04,21,16,39,6.20
2013,04,21,16,40,6.20
2013,04,21,16,41,6.20
2013,04,21,16,42,6.20
2013,04,21,16,43,6.20
2013,04,21,16,44,6.20
2013,04,21,16,45,6.20
2013,04,21,16,46,6.20
2013,04,21,16,47,6.20
2013,04,21,16,48,6.20
2013,04,21,16,49,6.20
2013,04,21,16,50,6.20
2013,04,21,16,51,6.20
2013,04,21,16,52,6.20
2013,04,21,16,53,6.20
2013,04,21,16,54,6.30
2013,04,21,16,55,6.30
2013,04,21,16,56,6.30
2013,04,21,16,57,6.30
2013,04,21,16,58,6.30
2013,04,21,16,59,6.30
2013,04,21,17,00,6.40
2013,04,21,17,01,6.40
2013,04,21,17,02,6.30
2013,04,21,17,03,6.30
2013,04,21,17,04,6.30
2013,04,21,17,05,6.30
2013,04,21,17,06,6.30
2013,04,21,17,07,6.30
2013,04,21,17,08,6.30
2013,04,21,17,09,6.30
2013,04,21,17,10,6.30
2013,04,21,17,11,6.30
2013,04,21,17,12,6.40
2013,04,21,17,13,6.40
2013,04,21,17,14,6.40
2013,04,21,17,15,6.40
2013,04,21,17,16,6.40
2013,04,21,17,17,6.40
2013,04,21,17,18,6.40
2013,04,21,17,19,6.40
2013,04,21,17,20,6.50
2013,04,21,17,21,6.60
2013,04,21,17,22,6.50
2013,04,21,17,23,6.50
2013,04,21,17,24,6.60
2013,04,21,17,25,6.60
2013,04,21,17,26,6.60
2013,04,21,17,27,6.60
2013,04,21,17,28,6.60
2013,04,21,17,29,6.60
2013,04,21,17,30,6.60
2013,04,21,17,31,6.60
2013,04,21,17,32,6.60
2013,04,21,17,33,6.60
2013,04,21,17,34,6.60
2013,04,21,17,35,6.60
2013,04,21,17,36,6.60
2013,04,21,17,37,6.60
2013,04,21,17,38,6.60
2013,04,21,17,39,6.60
2013,04,21,17,40,6.60
2013,04,21,17,41,6.60
2013,04,21,17,42,6.60
2013,04,21,17,43,6.60
2013,04,21,17,44,6.60
2013,04,21,17,45,6.60
2013,04,21,17,46,6.60
2013,04,21,17,47,6.60
2013,04,21,17,48,6.70
2013,04,21,17,49,6.60
2013,04,21,17,50,6.60
2013,04,21,17,51,6.40
2013,04,21,17,52,6.40
2013,04,21,17,53,6.40
2013,04,21,17,54,6.40
2013,04,21,17,55,6.40
2013,04,21,17,56,6.40
2013,04,21,17,57,6.40
2013,04,21,17,58,6.40
2013,04,21,17,59,6.40
2013,04,21,18,00,6.40
2013,04,21,18,01,6.40
2013,04,21,18,02,6.40
2013,04,21,18,03,6.40
2013,04,21,18,04,6.40
2013,04,21,18,05,6.40
2013,04,21,18,06,6.40
2013,04,21,18,07,6.40
2013,04,21,18,08,6.40
2013,04,21,18,09,6.40
2013,04,21,18,10,6.40
2013,04,21,18,11,6.40
2013,04,21,18,12,6.40
2013,04,21,18,13,6.40
2013,04,21,18,14,6.40
2013,04,21,18,15,6.40
2013,04,21,18,16,6.60
2013,04,21,18,17,6.60
2013,04,21,18,18,6.60
2013,04,21,18,19,6.60
2013,04,21,18,20,6.60
2013,04,21,18,21,6.60
2013,04,21,18,22,6.70
2013,04,21,18,23,6.70
2013,04,21,18,24,6.70
2013,04,21,18,25,6.70
2013,04,21,18,26,6.80
2013,04,21,18,27,6.80
2013,04,21,18,28,6.80
2013,04,21,18,29,6.80
2013,04,21,18,30,6.80
2013,04,21,18,31,6.90
2013,04,21,18,32,6.90
2013,04,21,18,33,6.90
2013,04,21,18,34,7.00
2013,04,21,18,35,7.00
2013,04,21,18,36,7.00
2013,04,21,18,37,7.00
2013,04,21,18,38,7.00
2013,04,21,18,39,7.00
2013,04,21,18,40,7.00
2013,04,21,18,41,7.00
2013,04,21,18,42,7.00
2013,04,21,18,43,7.00
2013,04,21,18,44,7.00
2013,04,21,18,45,7.00
2013,04,21,18,46,7.00
2013,04,21,18,47,7.00
2013,04,21,18,48,7.00
2013,04,21,18,49,7.00
2013,04,21,18,50,7.00
2013,04,21,18,51,7.00
2013,04,21,18,52,7.00
2013,04,21,18,53,6.90
2013,04,21,18,54,6.90
2013,04,21,18,55,6.80
2013,04,21,18,56,6.80
2013,04,21,18,57,6.80
2013,04,21,18,58,6.70
2013,04,21,18,59,6.70
2013,04,21,19,00,6.70
2013,04,21,19,01,6.60
2013,04,21,19,02,6.60
2013,04,21,19,03,6.60
2013,04,21,19,04,6.60
2013,04,21,19,05,6.60
2013,04,21,19,06,6.60
2013,04,21,19,07,6.50
2013,04,21,19,08,6.40
2013,04,21,19,09,6.40
2013,04,21,19,10,6.40
2013,04,21,19,11,6.40
2013,04,21,19,12,6.40
2013,04,21,19,13,6.40
2013,04,21,19,14,6.40
2013,04,21,19,15,6.40
2013,04,21,19,16,6.40
2013,04,21,19,17,6.40
2013,04,21,19,18,6.40
2013,04,21,19,19,6.40
2013,04,21,19,20,6.40
2013,04,21,19,21,6.40
2013,04,21,19,22,6.40
2013,04,21,19,23,6.40
2013,04,21,19,24,6.40
2013,04,21,19,25,6.40
2013,04,21,19,26,6.40
2013,04,21,19,27,6.40
2013,04,21,19,28,6.30
2013,04,21,19,29,6.30
2013,04,21,19,30,6.30
2013,04,21,19,31,6.30
2013,04,21,19,32,6.30
2013,04,21,19,33,6.20
2013,04,21,19,34,6.20
2013,04,21,19,35,6.20
2013,04,21,19,36,6.20
2013,04,21,19,37,6.20
2013,04,21,19,38,6.20
2013,04,21,19,39,6.20
2013,04,21,19,40,6.10
2013,04,21,19,41,6.10
2013,04,21,19,42,6.10
2013,04,21,19,43,6.00
2013,04,21,19,44,6.00
2013,04,21,19,45,6.00
2013,04,21,19,46,5.90
2013,04,21,19,47,5.90
2013,04,21,19,48,5.90
2013,04,21,19,49,5.90
2013,04,21,19,50,5.90
2013,04,21,19,51,5.90
2013,04,21,19,52,5.90
2013,04,21,19,53,5.90
2013,04,21,19,54,5.90
2013,04,21,19,55,5.90
2013,04,21,19,56,5.90
2013,04,21,19,57,5.90
2013,04,21,19,58,5.90
